Regional Weather Roundup
Issued by NWS Albany, NY

Home | Current Version | Previous Version | Text Only | Print | Product List | Glossary On
Versions: 1 2 3 4 5 6 7 8 9 10 11 12 13 14 15 16 17 18 19 20 21 22 23 24 25 26 27 28 29 30 31 32 33 34 35 36 37 38 39 40 41 42 43 44 45 46 47 48 49 50
000
ASUS41 KALY 012310
RWRALY

NEW YORK STATE HOURLY WEATHER ROUNDUP
NATIONAL WEATHER SERVICE ALBANY NY
700 PM EDT MON JUN 01 2015

NOTE: "FAIR" INDICATES FEW OR NO CLOUDS BELOW 12,000 FEET WITH NO
SIGNIFICANT WEATHER AND/OR NO OBSTRUCTIONS TO VISIBILITY.

NYZ032-033-038>043-046>054-057>066-NYZ062>081-020000-
EAST


CITY           SKY/WX    TMP DP  RH WIND       PRES   REMARKS
ALBANY         CLOUDY    54  49  83 E5        30.17R
GLENS FALLS    CLOUDY    51  48  89 NE9       30.19R
POUGHKEEPSIE   CLOUDY    54  50  86 NE5       30.15R
NEWBURGH       CLOUDY    52  52 100 E12       30.15R FOG
MONTGOMERY     CLOUDY    54  52  93 NE9       30.13R
WHITE PLAINS   DRIZZLE   53  51  93 NE7       30.12S FOG
ISLIP          FOG       54  51  90 NE14      30.10S VSB 1
NEW YORK CITY  DRIZZLE   55  53  93 NE21      30.12R FOG
CENTRAL PARK   CLOUDY    56  52  86 E12G20    30.14R
$$

NYZ005>009-017-018-044>046-055-056-020000-
CENTRAL


CITY           SKY/WX    TMP DP  RH WIND       PRES   REMARKS
FULTON         CLOUDY    55  51  86 E3        30.14R
SYRACUSE       DRIZZLE   53  52  96 NE6       30.13S FOG
ROME           LGT RAIN  53  51  93 E8        30.15S FOG
ELMIRA         CLOUDY    56  52  86 N5        30.12R
BINGHAMTON     CLOUDY    53  52  96 NW6       30.10R FOG
MONTICELLO     CLOUDY    50  48  93 E7        30.14R
$$

NYZ026>034-041>043-020000-
NORTH


CITY           SKY/WX    TMP DP  RH WIND       PRES   REMARKS
WATERTOWN      CLOUDY    56  53  90 NE13      30.15R
FORT DRUM      NOT AVBL
MASSENA        CLOUDY    55  47  74 NE12      30.22R
SARANAC LAKE   CLOUDY    49  47  93 NE10      30.17R
PLATTSBURGH    CLOUDY    52  51  97 NE6       30.22S
$$

NYZ001>004-010>016-019>021-020000-
WEST


CITY           SKY/WX    TMP DP  RH WIND       PRES   REMARKS
NIAGARA FALLS  CLOUDY    55  48  77 NE9       30.18R
BUFFALO        CLOUDY    54  48  80 NE10      30.18R
DUNKIRK        CLOUDY    54  49  83 NE5       30.18S
JAMESTOWN      CLOUDY    48  45  87 N7        30.16S
WELLSVILLE     CLOUDY    50  47  89 VRB5      30.16R
ROCHESTER      LGT RAIN  52  51  97 NE8       30.17S FOG
PENN YAN       CLOUDY    54  50  86 NW6       30.14R
$$

             KEY
       WCI = WIND CHILL INDEX
       VSB = VISIBILITY
       HX  = HEAT INDEX
$$



USA.gov is the U.S. government's official web portal to all federal, state and local government web resources and services.